Weather History for KLZZ - October, 2013

Change the Weather History Date:

Wednesday, October 16, 2013

  Actual Average (KGRK) Record (KGRK)
Temperature  
Mean Temperature 57 °F -  
Max Temperature 64 °F 76 °F 87 °F (1996)
Min Temperature 51 °F 56 °F 44 °F (2001)
Degree Days  
Heating Degree Days 8    
Growing Degree Days 7 (Base 50)    
Moisture  
Dew Point 53 °F    
Average Humidity 88    
Maximum Humidity 96    
Minimum Humidity 71    
Precipitation  
Precipitation 1.60 in - - ()
Sea Level Pressure  
Sea Level Pressure 30.06 in    
Wind  
Wind Speed 6 mph (North)    
Max Wind Speed 12 mph    
Max Gust Speed 16 mph    
Visibility 9 miles    
Events Rain    
Averages and records for this station are not official NWS values.
T = Trace of Precipitation, MM = Missing Value Source: NWS Daily Summary

Daily Weather History Graph

Daily Weather History Graph

Search for Another Location

Airport or City:

Trip Planner

Search our weather history database for the weather conditions in past years. The results will help you decide how hot, cold, wet, or windy it might be!

Date:

Astronomy

Oct. 16, 2013 Rise Set
Actual Time 7:36 AM CDT 6:59 PM CDT
Civil Twilight 7:11 AM CDT 7:24 PM CDT
Nautical Twilight 6:43 AM CDT 7:52 PM CDT
Astronomical Twilight 6:15 AM CDT 8:20 PM CDT
Moon 5:33 PM CDT (10/16) 5:14 AM CDT (10/16)
Length of Visible Light 12h 12m
Length of Day
11h 23m
Waxing Gibbous, 94% of the Moon is Illuminated
Oct 16
Waxing Gibbous
Oct 18
Full
Oct 26
Last Quarter
Nov 3
New
Nov 9
First Quarter

Hourly Weather History & Observations

Time (CDT) Temp. Dew Point Humidity Pressure Visibility Wind Dir Wind Speed Gust Speed Precip Events Conditions
12:15 AM 52.9 °F 51.8 °F 96% 30.03 in 5.0 mi North 5.8 mph - 0.02 in Rain Rain
12:35 AM 52.9 °F 51.8 °F 96% 30.02 in 5.0 mi North 9.2 mph - 0.05 in Rain Rain
12:55 AM 52.9 °F 51.8 °F 96% 30.03 in 7.0 mi NNW 6.9 mph - 0.09 in Rain Rain
1:15 AM 52.9 °F 51.8 °F 96% 30.02 in 5.0 mi NNW 6.9 mph - 0.02 in Rain Rain
1:35 AM 52.9 °F 51.8 °F 96% 30.02 in 7.0 mi North 6.9 mph - 0.06 in Rain Rain
1:55 AM 52.9 °F 51.8 °F 96% 30.03 in 5.0 mi North 8.1 mph - 0.09 in Rain Heavy Rain
2:15 AM 52.9 °F 51.8 °F 96% 30.02 in 7.0 mi North 8.1 mph - 0.03 in Rain Rain
2:35 AM 52.9 °F 51.8 °F 96% 30.05 in 4.0 mi NNW 5.8 mph - 0.08 in Rain Heavy Rain
2:55 AM 52.9 °F 51.8 °F 96% 30.05 in 4.0 mi North 4.6 mph - 0.13 in Rain Heavy Rain
3:15 AM 52.9 °F 51.8 °F 96% 30.05 in 7.0 mi NNW 3.5 mph - 0.05 in Rain Heavy Rain
3:35 AM 51.8 °F 50.5 °F 95% 30.04 in 5.0 mi NNW 4.6 mph - 0.10 in Rain Rain
3:55 AM 51.8 °F 50.4 °F 95% 30.04 in 5.0 mi North 5.8 mph - 0.16 in Rain Heavy Rain
4:15 AM 51.8 °F 50.4 °F 95% 30.04 in 5.0 mi North 5.8 mph - 0.05 in Rain Heavy Rain
4:35 AM 51.8 °F 50.4 °F 95% 30.03 in 4.0 mi North 3.5 mph - 0.10 in Rain Heavy Rain
4:55 AM 51.4 °F 50.2 °F 95% 30.03 in 10.0 mi North 4.6 mph - 0.16 in Rain Rain
5:15 AM 51.8 °F 50.4 °F 95% 30.04 in 10.0 mi NNW 4.6 mph - 0.05 in Rain Rain
5:35 AM 51.8 °F 50.4 °F 95% 30.04 in 7.0 mi NNW 4.6 mph - 0.11 in Rain Heavy Rain
5:55 AM 51.8 °F 50.4 °F 95% 30.04 in 10.0 mi North 8.1 mph - 0.16 in Rain Rain
6:15 AM 51.8 °F 50.4 °F 95% 30.04 in 7.0 mi North 5.8 mph - 0.05 in Rain Heavy Rain
6:35 AM 51.8 °F 50.4 °F 95% 30.03 in 7.0 mi North 9.2 mph - 0.11 in Rain Rain
6:55 AM 51.8 °F 50.4 °F 95% 30.04 in 10.0 mi North 11.5 mph 16.1 mph 0.17 in Rain Rain
7:15 AM 51.8 °F 50.4 °F 95% 30.04 in 10.0 mi North 11.5 mph - 0.04 in Rain Rain
7:35 AM 52.9 °F 51.8 °F 96% 30.05 in 10.0 mi North 8.1 mph - 0.10 in Rain Light Rain
7:55 AM 52.9 °F 51.8 °F 96% 30.05 in 10.0 mi North 6.9 mph - 0.15 in   Drizzle
8:15 AM 52.9 °F 51.8 °F 96% 30.07 in 7.0 mi North 8.1 mph - 0.04 in   Drizzle
8:35 AM 52.9 °F 51.8 °F 96% 30.07 in 7.0 mi North 10.4 mph - 0.09 in Rain Rain
8:55 AM 52.9 °F 51.8 °F 96% 30.09 in 7.0 mi NNW 6.9 mph - 0.14 in   Light Drizzle
9:15 AM 52.9 °F 51.6 °F 95% 30.09 in 7.0 mi North 8.1 mph - 0.04 in Rain Light Rain
9:35 AM 52.9 °F 51.4 °F 95% 30.10 in 7.0 mi North 9.2 mph - 0.09 in Rain Rain
9:55 AM 52.9 °F 51.4 °F 95% 30.10 in 5.0 mi North 8.1 mph - 0.14 in   Drizzle
10:15 AM 52.9 °F 51.6 °F 95% 30.10 in 7.0 mi North 9.2 mph - 0.03 in   Overcast
10:35 AM 53.4 °F 52.0 °F 95% 30.10 in 10.0 mi North 9.2 mph - 0.08 in   Overcast
10:55 AM 55.4 °F 53.6 °F 94% 30.10 in 10.0 mi North 10.4 mph - 0.12 in   Overcast
11:15 AM 55.4 °F 53.6 °F 94% 30.11 in 10.0 mi North 8.1 mph - 0.03 in   Overcast
11:35 AM 55.4 °F 53.6 °F 94% 30.11 in 10.0 mi North 8.1 mph - 0.06 in   Overcast
11:55 AM 55.4 °F 53.4 °F 93% 30.11 in 10.0 mi North 5.8 mph - 0.09 in   Overcast
12:15 PM 55.4 °F 53.4 °F 93% 30.09 in 10.0 mi North 9.2 mph - N/A   Overcast
12:35 PM 55.4 °F 53.1 °F 92% 30.09 in 10.0 mi North 6.9 mph - N/A   Overcast
12:55 PM 55.4 °F 52.9 °F 91% 30.08 in 10.0 mi North 9.2 mph - N/A   Overcast
1:15 PM 55.4 °F 52.5 °F 90% 30.08 in 10.0 mi North 8.1 mph - N/A   Overcast
1:35 PM 58.1 °F 54.5 °F 88% 30.07 in 10.0 mi North 6.9 mph - N/A   Overcast
1:55 PM 58.1 °F 54.3 °F 87% 30.06 in 10.0 mi North 9.2 mph - N/A   Overcast
2:15 PM 58.1 °F 53.8 °F 86% 30.05 in 10.0 mi North 6.9 mph - N/A   Overcast
2:35 PM 58.3 °F 53.6 °F 84% 30.05 in 10.0 mi North 5.8 mph - N/A   Overcast
2:55 PM 60.4 °F 55.2 °F 83% 30.04 in 10.0 mi North 6.9 mph - N/A   Overcast
3:15 PM 60.4 °F 54.5 °F 81% 30.02 in 10.0 mi North 6.9 mph - N/A   Overcast
3:35 PM 61.7 °F 54.1 °F 76% 30.03 in 10.0 mi North 8.1 mph - N/A   Overcast
3:55 PM 63.0 °F 54.9 °F 75% 30.03 in 10.0 mi North 8.1 mph - N/A   Overcast
4:15 PM 63.1 °F 53.8 °F 71% 30.03 in 10.0 mi NNW 6.9 mph - N/A   Overcast
4:35 PM 63.5 °F 54.3 °F 72% 30.02 in 10.0 mi North 6.9 mph - N/A   Overcast
4:55 PM 63.9 °F 54.3 °F 71% 30.02 in 10.0 mi North 5.8 mph - N/A   Overcast
5:15 PM 63.7 °F 54.5 °F 72% 30.02 in 10.0 mi NNW 6.9 mph - N/A   Overcast
5:35 PM 63.1 °F 54.3 °F 73% 30.02 in 10.0 mi North 4.6 mph - N/A   Overcast
5:55 PM 63.0 °F 54.9 °F 75% 30.03 in 10.0 mi North 4.6 mph - N/A   Overcast
6:15 PM 62.2 °F 54.3 °F 75% 30.03 in 10.0 mi North 5.8 mph - N/A   Overcast
6:35 PM 61.7 °F 53.8 °F 75% 30.04 in 10.0 mi North 4.6 mph - N/A   Overcast
6:55 PM 61.7 °F 54.5 °F 77% 30.04 in 10.0 mi North 4.6 mph - N/A   Overcast
7:15 PM 61.2 °F 54.1 °F 78% 30.04 in 10.0 mi Calm Calm - N/A   Overcast
7:35 PM 60.4 °F 54.3 °F 80% 30.04 in 10.0 mi Calm Calm - N/A   Overcast
7:55 PM 60.4 °F 54.5 °F 81% 30.05 in 10.0 mi Calm Calm - N/A   Overcast
8:35 PM 60.4 °F 54.0 °F 79% 30.07 in 10.0 mi Calm Calm - N/A   Overcast
8:55 PM 60.4 °F 55.6 °F 84% 30.07 in 10.0 mi Calm Calm - N/A   Overcast
9:15 PM 58.1 °F 54.0 °F 86% 30.07 in 10.0 mi Calm Calm - N/A   Overcast
9:35 PM 58.1 °F 54.0 °F 86% 30.08 in 10.0 mi Calm Calm - N/A   Overcast
9:55 PM 58.6 °F 53.2 °F 82% 30.09 in 10.0 mi North 4.6 mph - N/A   Overcast
10:15 PM 58.6 °F 51.8 °F 78% 30.09 in 10.0 mi North 4.6 mph - N/A   Overcast
10:35 PM 58.1 °F 50.9 °F 77% 30.10 in 10.0 mi North 3.5 mph - N/A   Mostly Cloudy
10:55 PM 58.1 °F 51.1 °F 77% 30.10 in 10.0 mi North 4.6 mph - N/A   Mostly Cloudy
11:15 PM 56.1 °F 50.4 °F 81% 30.10 in 10.0 mi Calm Calm - N/A   Scattered Clouds
11:35 PM 55.4 °F 50.9 °F 85% 30.10 in 10.0 mi NNW 3.5 mph - N/A   Clear
11:55 PM 55.4 °F 51.1 °F 85% 30.10 in 10.0 mi Calm Calm - N/A   Scattered Clouds